Aérodrome :
LOGIN :

S'inscrire | Disclaimer

   EN    FR    IT 

 










Légende :    VFR   VFR Marginal   IFR   IFR Intensif   IFR Très Intensif
Visi : 
Plafond : 
>= 8 km
>= 3000ft
5 à 8 km
1000 à 3000 ft
1500m à 5 km
500 à 1000 ft
800 à 1500m
200 à 500 ft
< 800m
< 200 ft
Symboles :   Orages  Brouillard  Fortes neiges  Fortes précipitations  Vent > 20 kt
SIGMETs :   Divers  Orages  Givrage  Turbulence  Onde Orograph.  Cendres Volcan.







- Altitude de l'aérodrome : 348 ft
- Code IATA : LDV
- Voir les cartes d'approche


LFRJ - Landivisiau

DERNIER METAR :
  • 152200Z AUTO 24012KT 9999 FEW015/// SCT038/// BKN060/// ///CB 09/07 Q1009

METARs EXPIRÉS :
  • 152130Z AUTO 25008KT 9999 4600 RA SCT022/// BKN034/// BKN048/// ///CB 09/07 Q1009
  • 152100Z AUTO 24010KT 9999 FEW023/// ///CB 09/06 Q1008
  • 152030Z AUTO 24011KT 9999 FEW025 SCT035 09/06 Q1008
  • 152000Z AUTO 25011KT 9999 FEW023 09/07 Q1008
  • 151930Z AUTO 26014KT 9999 FEW026 10/07 Q1008

Prévision TAF périmée.
Pas de NOTAMs connus pour ce terrain.



MET'MAP, la Météo Aéronautique d'un coup d'oeil ! - Copyright ORBIFLY Décembre 2007 - Disclaimer

ORBIFLY MET'MAP TEAM :

Programmation & Développement : Alexandra Zaïnal
Conception & Développement : Baudouin d'Aumeries
Co-Programmation & Développement : Marc-Olivier Méhu
Soutien technique & logistique : Manuel Goepfert

Contact : metmap@orbifly.com




SOURCES & CREDITS :

   NOAA